Regional Weather Roundup
Issued by NWS Green Bay, WI

Home | Current Version | Previous Version | Text Only | Print | Product List | Glossary On
Versions: 1 2 3 4 5 6 7 8 9 10 11 12 13 14 15 16 17 18 19 20 21 22 23 24 25 26 27 28 29 30 31 32 33 34 35 36 37 38 39 40 41 42 43 44 45 46 47 48 49 50
000
ASUS43 KGRB 251100
RWRGRB

NORTH-CENTRAL AND NORTHEAST WISCONSIN REGIONAL WEATHER ROUNDUP
NATIONAL WEATHER SERVICE GREEN BAY WI
600 AM CDT SAT MAR 25 2017

WIZ005-009-010>012-018-019-251200-
NORTH CENTRAL WISCONSIN

CITY           SKY/WX    TMP DP  RH WIND       PRES   REMARKS
IRONWOOD       CLOUDY    32  29  88 E8        30.26R
MANITOWISH WTR NOT AVBL
ARBOR VITAE    NOT AVBL
EAGLE RIVER    NOT AVBL
LAND O LAKES   NOT AVBL
RHINELANDER    CLOUDY    34  30  85 E17       30.21R
PHILLIPS       NOT AVBL
ANTIGO         NOT AVBL
TOMAHAWK       NOT AVBL
MERRILL        NOT AVBL
$$

WIZ013-073-251200-
NORTHEAST WISCONSIN

CITY           SKY/WX    TMP DP  RH WIND       PRES   REMARKS
IRON MOUNTAIN  CLOUDY    33  29  85 NE7       30.25R
MARINETTE        N/A    N/A N/A N/A MISG        N/A
$$

WIZ017-030-035>037-045-251200-
CENTRAL WISCONSIN

CITY           SKY/WX    TMP DP  RH WIND       PRES   REMARKS
MEDFORD        NOT AVBL
WAUSAU         CLOUDY    34  30  85 E9        30.19R
MOSINEE        CLOUDY    34  32  93 NE14G21   30.19R
MARSHFIELD     CLOUDY    33  30  88 E16       30.16R
WISC RAPIDS    CLOUDY    35  32  88 E14       30.17S
STEVENS POINT  NOT AVBL
WAUPACA        NOT AVBL
SHAWANO        NOT AVBL
CLINTONVILLE   NOT AVBL
WAUTOMA        CLOUDY    35  32  88 NE14      30.15R
$$

WIZ038-039-048-051-251200-
FOX VALLEY

CITY           SKY/WX    TMP DP  RH WIND       PRES   REMARKS
NWS GREEN BAY  CLOUDY    35  34  96 NE16      30.20R
APPLETON       CLOUDY    34  34 100 NE15G21   30.15R
OSHKOSH        MIX PCPN  34  32  92 NE17G26   30.15R FOG
FOND DU LAC    CLOUDY    36  33  89 NE13      30.15R
$$

WIZ022-050-052-251200-
EAST CENTRAL WISCONSIN

CITY           SKY/WX    TMP DP  RH WIND       PRES   REMARKS
EPHRAIM        NOT AVBL
WASHINGTON ISL NOT AVBL
STURGEON BAY   CLOUDY    35  32  88 NE12      30.22R
MANITOWOC      NOT AVBL
SHEBOYGAN      MIX PCPN  36  34  92 NE16      30.15R FOG
$$

LMZ563-521-522-541>543-251200-
LAKESHORE

STATION/POSITION TIME  TEMP    WIND        PRES    VSBY  WAVE
                       AIR SEA DIR/SP/G                  HT/PER
                 (UTC) (F)     (DEG/KT/KT) (MB)    (MI)  (FT/S)
SHEBOYGAN LKSHOR 1000   36      30/ 19/ 21 1020.8R
KEWAUNEE LKSHORE 1030   36      40/ 12/ 19 1022.0R
NORTHPORT PIER   1040   35      40/ 13/ 16 1024.4R
SISTER BAY LKSHO 0951   35      20/  7/ 10   N/A
CHAMBERS ISLAND  1040   33      20/ 12/ 15 1023.4R
MENOMINEE LKSHOR 1030   33      20/ 15/ 18 1022.8R
$$




USA.gov is the U.S. government's official web portal to all federal, state and local government web resources and services.